| time (UTC) | temp C | wind direction | speed KPH | gust KPH | rain 1hr cm | rain 24hr cm | rain mn cm | humidity % | barometer mb |
| 20260505171602 | 25 | 178 | 1.6 | 1.6 | 0.00 | 0.00 | 0.00 | 88 | 1013.2 |
| 20260505171100 | 25 | 136 | 3.2 | 4.8 | 0.00 | 0.00 | 0.00 | 89 | 1013.3 |
| 20260505170556 | 25 | 111 | 3.2 | 3.2 | 0.00 | 0.00 | 0.00 | 89 | 1013.5 |
| 20260505170053 | 25 | 155 | 1.6 | 3.2 | 0.00 | 0.00 | 0.00 | 88 | 1013.4 |
| 20260505165548 | 25 | 185 | 4.8 | 9.7 | 0.00 | 0.00 | 0.00 | 87 | 1013.6 |
| 20260505165045 | 25 | 108 | 1.6 | 3.2 | 0.00 | 0.00 | 0.00 | 87 | 1013.3 |
| 20260505164540 | 25 | 216 | 3.2 | 3.2 | 0.00 | 0.00 | 0.00 | 87 | 1013.4 |
| 20260505164038 | 25 | 266 | 3.2 | 4.8 | 0.00 | 0.00 | 0.00 | 88 | 1013.3 |
| 20260505163537 | 25 | 200 | 1.6 | 1.6 | 0.00 | 0.00 | 0.00 | 88 | 1013.6 |
| 20260505163033 | 25 | 157 | 1.6 | 3.2 | 0.00 | 0.00 | 0.00 | 86 | 1013.4 |
| 20260505162526 | 25 | 165 | 1.6 | 3.2 | 0.00 | 0.00 | 0.00 | 86 | 1013.4 |
| 20260505162024 | 25 | 126 | 0.0 | 1.6 | 0.00 | 0.00 | 0.00 | 87 | 1013.6 |
| 20260505161520 | 25 | 178 | 4.8 | 4.8 | 0.00 | 0.00 | 0.00 | 87 | 1013.6 |
| 20260505161017 | 25 | 167 | 1.6 | 3.2 | 0.00 | 0.00 | 0.00 | 87 | 1013.5 |
| 20260505160515 | 25 | 166 | 4.8 | 8.0 | 0.00 | 0.00 | 0.00 | 86 | 1013.6 |
| 20260505152951 | 25 | 198 | 8.0 | 12.9 | 0.00 | 0.00 | 0.00 | 87 | 1013.4 |
| 20260505152449 | 25 | 155 | 1.6 | 1.6 | 0.00 | 0.00 | 0.00 | 88 | 1013.5 |
| 20260505151944 | 25 | 173 | 4.8 | 4.8 | 0.00 | 0.00 | 0.00 | 88 | 1013.3 |
| 20260505151439 | 25 | 171 | 3.2 | 8.0 | 0.00 | 0.00 | 0.00 | 88 | 1013.4 |
| 20260505150937 | 25 | 210 | 3.2 | 3.2 | 0.00 | 0.00 | 0.00 | 88 | 1013.3 |
| 20260505150428 | 25 | 305 | 11.3 | 16.1 | 0.00 | 0.00 | 0.00 | 87 | 1013.2 |
| 20260505140352 | 23 | 195 | 1.6 | 3.2 | 0.00 | 0.00 | 0.00 | 92 | 1013.0 |
| 20260505124806 | 22 | 177 | 0.0 | 0.0 | 0.00 | 0.00 | 0.00 | 95 | 1012.8 |
| 20260505124303 | 21 | 142 | 3.2 | 3.2 | 0.00 | 0.00 | 0.00 | 96 | 1012.8 |
| 20260505123759 | 21 | 176 | 3.2 | 3.2 | 0.00 | 0.00 | 0.00 | 96 | 1012.6 |
| 20260505123255 | 21 | 187 | 3.2 | 3.2 | 0.00 | 0.00 | 0.00 | 96 | 1012.5 |
| 20260505122752 | 21 | 155 | 1.6 | 1.6 | 0.00 | 0.00 | 0.00 | 96 | 1012.6 |
| 20260505122249 | 21 | 177 | 1.6 | 1.6 | 0.00 | 0.00 | 0.00 | 96 | 1012.5 |
| 20260505121746 | 21 | 203 | 4.8 | 8.0 | 0.00 | 0.00 | 0.00 | 96 | 1012.8 |
| 20260505121242 | 21 | 151 | 0.0 | 1.6 | 0.00 | 0.00 | 0.00 | 97 | 1012.7 |
| 20260505120739 | 21 | 124 | 3.2 | 3.2 | 0.00 | 0.00 | 0.00 | 97 | 1012.7 |
| 20260505120235 | 21 | 184 | 6.4 | 9.7 | 0.00 | 0.00 | 0.00 | 97 | 1012.7 |
| 20260505115734 | 21 | 176 | 1.6 | 3.2 | 0.00 | 0.00 | 0.00 | 97 | 1012.5 |
| 20260505115232 | 21 | 163 | 1.6 | 1.6 | 0.00 | 0.00 | 0.00 | 97 | 1012.7 |
| 20260505114729 | 21 | 188 | 0.0 | 0.0 | 0.00 | 0.00 | 0.00 | 97 | 1012.5 |
| 20260505114224 | 21 | 348 | 3.2 | 4.8 | 0.00 | 0.00 | 0.00 | 97 | 1012.7 |
| 20260505113721 | 21 | 178 | 4.8 | 8.0 | 0.00 | 0.00 | 0.00 | 97 | 1012.5 |
| 20260505113217 | 21 | 191 | 3.2 | 3.2 | 0.00 | 0.00 | 0.00 | 97 | 1012.5 |
| 20260505112713 | 20 | 166 | 8.0 | 11.3 | 0.00 | 0.00 | 0.00 | 97 | 1012.4 |
| 20260505112211 | 20 | 176 | 4.8 | 4.8 | 0.00 | 0.00 | 0.00 | 97 | 1012.2 |
| 20260505111706 | 20 | 170 | 3.2 | 3.2 | 0.00 | 0.00 | 0.00 | 97 | 1012.1 |
| 20260505111202 | 20 | 160 | 4.8 | 4.8 | 0.00 | 0.00 | 0.00 | 97 | 1012.4 |
| 20260505110658 | 20 | 186 | 1.6 | 3.2 | 0.00 | 0.00 | 0.00 | 97 | 1012.2 |
| 20260505110156 | 20 | 144 | 6.4 | 8.0 | 0.00 | 0.00 | 0.00 | 97 | 1012.4 |
| 20260505102131 | 20 | 160 | 1.6 | 1.6 | 0.00 | 0.00 | 0.00 | 97 | 1012.4 |
| 20260505101630 | 20 | 178 | 0.0 | 0.0 | 0.00 | 0.00 | 0.00 | 97 | 1012.5 |
| 20260505101126 | 20 | 164 | 0.0 | 1.6 | 0.00 | 0.00 | 0.00 | 97 | 1012.5 |
| 20260505100622 | 20 | 192 | 1.6 | 1.6 | 0.00 | 0.00 | 0.00 | 97 | 1012.6 |
| 20260505100119 | 20 | 174 | 0.0 | 1.6 | 0.00 | 0.00 | 0.00 | 97 | 1012.4 |
| 20260505095615 | 20 | 175 | 0.0 | 1.6 | 0.00 | 0.00 | 0.00 | 97 | 1012.4 |
| 20260505095112 | 20 | 196 | 1.6 | 3.2 | 0.00 | 0.00 | 0.00 | 96 | 1012.6 |
| 20260505094608 | 20 | 192 | 1.6 | 3.2 | 0.00 | 0.00 | 0.00 | 96 | 1012.5 |
| 20260505094105 | 20 | 161 | 1.6 | 1.6 | 0.00 | 0.00 | 0.00 | 96 | 1012.7 |
| 20260505093601 | 20 | 151 | 3.2 | 3.2 | 0.00 | 0.00 | 0.00 | 96 | 1012.6 |
| 20260505093059 | 20 | 193 | 1.6 | 3.2 | 0.00 | 0.00 | 0.00 | 96 | 1012.9 |
| 20260505092556 | 20 | 146 | 1.6 | 3.2 | 0.00 | 0.00 | 0.00 | 96 | 1012.9 |
| 20260505092055 | 20 | 142 | 4.8 | 4.8 | 0.00 | 0.00 | 0.00 | 96 | 1012.9 |
| 20260505091550 | 20 | 171 | 0.0 | 0.0 | 0.00 | 0.00 | 0.00 | 96 | 1013.2 |
| 20260505091049 | 20 | 181 | 0.0 | 1.6 | 0.00 | 0.00 | 0.00 | 96 | 1012.9 |
| 20260505090547 | 20 | 169 | 0.0 | 1.6 | 0.00 | 0.00 | 0.00 | 96 | 1013.2 |
| 20260505090044 | 20 | 179 | 0.0 | 0.0 | 0.00 | 0.00 | 0.00 | 96 | 1013.2 |
| 20260505085542 | 20 | 163 | 1.6 | 1.6 | 0.00 | 0.00 | 0.00 | 96 | 1013.0 |
| 20260505085040 | 20 | 172 | 0.0 | 1.6 | 0.00 | 0.00 | 0.00 | 95 | 1013.0 |
| 20260505084538 | 20 | 138 | 1.6 | 1.6 | 0.00 | 0.00 | 0.00 | 95 | 1013.0 |
| 20260505084036 | 20 | 170 | 4.8 | 8.0 | 0.00 | 0.00 | 0.00 | 95 | 1013.1 |
| 20260505083532 | 20 | 123 | 3.2 | 3.2 | 0.00 | 0.00 | 0.00 | 95 | 1013.3 |
| 20260505083029 | 20 | 188 | 1.6 | 3.2 | 0.00 | 0.00 | 0.00 | 95 | 1013.2 |
| 20260505082525 | 20 | 155 | 1.6 | 3.2 | 0.00 | 0.00 | 0.00 | 95 | 1013.3 |
| 20260505082022 | 20 | 169 | 0.0 | 0.0 | 0.00 | 0.00 | 0.00 | 95 | 1013.4 |
| 20260505081518 | 20 | 174 | 1.6 | 1.6 | 0.00 | 0.00 | 0.00 | 95 | 1013.4 |
| 20260505081015 | 20 | 160 | 0.0 | 1.6 | 0.00 | 0.00 | 0.00 | 94 | 1013.3 |
| 20260505080512 | 20 | 184 | 0.0 | 0.0 | 0.00 | 0.00 | 0.00 | 94 | 1013.3 |
| 20260505080008 | 20 | 172 | 0.0 | 0.0 | 0.00 | 0.00 | 0.00 | 94 | 1013.2 |
| 20260505075504 | 20 | 178 | 1.6 | 1.6 | 0.00 | 0.00 | 0.00 | 94 | 1013.3 |
| 20260505075001 | 20 | 153 | 1.6 | 1.6 | 0.00 | 0.00 | 0.00 | 94 | 1013.2 |
| 20260505074459 | 20 | 210 | 3.2 | 4.8 | 0.00 | 0.00 | 0.00 | 94 | 1013.3 |
| 20260505073956 | 20 | 215 | 4.8 | 4.8 | 0.00 | 0.00 | 0.00 | 94 | 1013.3 |
| 20260505073453 | 20 | 181 | 1.6 | 3.2 | 0.00 | 0.00 | 0.00 | 93 | 1013.2 |
| 20260505072950 | 20 | 182 | 1.6 | 1.6 | 0.00 | 0.00 | 0.00 | 93 | 1013.4 |
| 20260505072446 | 20 | 193 | 0.0 | 1.6 | 0.00 | 0.00 | 0.00 | 93 | 1013.6 |
| 20260505071943 | 20 | 226 | 1.6 | 3.2 | 0.00 | 0.00 | 0.00 | 93 | 1013.8 |
| 20260505071438 | 20 | 193 | 1.6 | 1.6 | 0.00 | 0.00 | 0.00 | 93 | 1013.9 |
| 20260505070937 | 20 | 175 | 0.0 | 0.0 | 0.00 | 0.00 | 0.00 | 92 | 1013.7 |
| 20260505070433 | 20 | 153 | 3.2 | 3.2 | 0.00 | 0.00 | 0.00 | 92 | 1013.7 |
| 20260505065929 | 20 | 164 | 4.8 | 4.8 | 0.00 | 0.00 | 0.00 | 92 | 1013.8 |
| 20260505065426 | 20 | 196 | 4.8 | 8.0 | 0.00 | 0.00 | 0.00 | 92 | 1013.8 |
| 20260505064922 | 20 | 157 | 4.8 | 4.8 | 0.00 | 0.00 | 0.00 | 92 | 1014.0 |
| 20260505064420 | 20 | 144 | 1.6 | 8.0 | 0.00 | 0.00 | 0.00 | 92 | 1013.7 |
| 20260505063918 | 20 | 220 | 1.6 | 1.6 | 0.00 | 0.00 | 0.00 | 91 | 1014.1 |
| 20260505063414 | 20 | 170 | 3.2 | 3.2 | 0.00 | 0.00 | 0.00 | 91 | 1013.7 |
| 20260505062910 | 20 | 172 | 0.0 | 0.0 | 0.00 | 0.00 | 0.00 | 91 | 1014.2 |
| 20260505062408 | 20 | 189 | 1.6 | 1.6 | 0.00 | 0.00 | 0.00 | 91 | 1013.7 |
| 20260505061904 | 20 | 194 | 0.0 | 1.6 | 0.00 | 0.00 | 0.00 | 91 | 1014.2 |
| 20260505061403 | 20 | 179 | 0.0 | 0.0 | 0.00 | 0.00 | 0.00 | 90 | 1014.1 |
| 20260505060900 | 20 | 167 | 3.2 | 4.8 | 0.00 | 0.00 | 0.00 | 90 | 1014.1 |
| 20260505060356 | 20 | 169 | 4.8 | 4.8 | 0.00 | 0.00 | 0.00 | 90 | 1014.1 |
| 20260505055853 | 20 | 153 | 1.6 | 1.6 | 0.00 | 0.00 | 0.00 | 90 | 1014.2 |
| 20260505055349 | 20 | 186 | 0.0 | 0.0 | 0.00 | 0.00 | 0.00 | 89 | 1014.2 |
| 20260505054846 | 20 | 207 | 1.6 | 1.6 | 0.00 | 0.00 | 0.00 | 89 | 1014.1 |
| 20260505054343 | 20 | 168 | 1.6 | 1.6 | 0.00 | 0.00 | 0.00 | 89 | 1014.2 |
| 20260505053842 | 20 | 180 | 4.8 | 4.8 | 0.00 | 0.00 | 0.00 | 89 | 1014.3 |
| 20260505053338 | 21 | 174 | 0.0 | 1.6 | 0.00 | 0.00 | 0.00 | 88 | 1014.4 |
| 20260505052835 | 21 | 180 | 3.2 | 8.0 | 0.00 | 0.00 | 0.00 | 88 | 1014.2 |
| 20260505052332 | 21 | 181 | 1.6 | 1.6 | 0.00 | 0.00 | 0.00 | 88 | 1014.4 |
| 20260505051829 | 21 | 187 | 3.2 | 3.2 | 0.00 | 0.00 | 0.00 | 88 | 1014.4 |
| 20260505051326 | 21 | 156 | 1.6 | 3.2 | 0.00 | 0.00 | 0.00 | 88 | 1014.5 |
| 20260505050824 | 21 | 182 | 1.6 | 1.6 | 0.00 | 0.00 | 0.00 | 88 | 1014.5 |
| 20260505050323 | 21 | 160 | 1.6 | 1.6 | 0.00 | 0.00 | 0.00 | 88 | 1014.5 |
| 20260505041752 | 21 | 185 | 1.6 | 1.6 | 0.00 | 0.00 | 0.00 | 86 | 1014.3 |
| 20260505041249 | 21 | 170 | 4.8 | 4.8 | 0.00 | 0.00 | 0.00 | 86 | 1014.4 |
| 20260505040747 | 21 | 177 | 11.3 | 12.9 | 0.00 | 0.00 | 0.00 | 85 | 1014.4 |
| 20260505040244 | 21 | 180 | 1.6 | 1.6 | 0.00 | 0.00 | 0.00 | 85 | 1014.5 |
| 20260505035741 | 21 | 129 | 3.2 | 3.2 | 0.00 | 0.00 | 0.00 | 85 | 1014.7 |
| 20260505035237 | 21 | 199 | 4.8 | 4.8 | 0.00 | 0.00 | 0.00 | 85 | 1014.7 |
| 20260505034734 | 21 | 156 | 4.8 | 9.7 | 0.00 | 0.00 | 0.00 | 85 | 1014.6 |
| 20260505034231 | 21 | 136 | 8.0 | 9.7 | 0.00 | 0.00 | 0.00 | 85 | 1014.7 |
| 20260505033727 | 21 | 141 | 3.2 | 3.2 | 0.00 | 0.00 | 0.00 | 85 | 1014.7 |
| 20260505033225 | 21 | 170 | 1.6 | 3.2 | 0.00 | 0.00 | 0.00 | 85 | 1014.6 |
| 20260505032723 | 21 | 167 | 4.8 | 8.0 | 0.00 | 0.00 | 0.00 | 85 | 1014.9 |
| 20260505032219 | 21 | 191 | 0.0 | 0.0 | 0.00 | 0.00 | 0.00 | 86 | 1014.7 |
| 20260505031716 | 21 | 194 | 1.6 | 1.6 | 0.00 | 0.00 | 0.00 | 86 | 1015.0 |
| 20260505031212 | 21 | 171 | 1.6 | 1.6 | 0.00 | 0.00 | 0.00 | 86 | 1014.7 |
| 20260505030710 | 21 | 162 | 0.0 | 0.0 | 0.00 | 0.00 | 0.00 | 86 | 1014.8 |
| 20260505030205 | 21 | 188 | 3.2 | 4.8 | 0.00 | 0.00 | 0.00 | 85 | 1014.8 |
| 20260505025701 | 21 | 207 | 4.8 | 8.0 | 0.00 | 0.00 | 0.00 | 85 | 1014.6 |
| 20260505025200 | 21 | 90 | 6.4 | 12.9 | 0.00 | 0.00 | 0.00 | 85 | 1014.8 |
| 20260505024658 | 21 | 169 | 3.2 | 3.2 | 0.00 | 0.00 | 0.00 | 85 | 1014.7 |
| 20260505024154 | 21 | 168 | 6.4 | 9.7 | 0.00 | 0.00 | 0.00 | 84 | 1014.6 |
| 20260505023652 | 21 | 180 | 3.2 | 4.8 | 0.00 | 0.00 | 0.00 | 84 | 1014.6 |
| 20260505023149 | 21 | 145 | 6.4 | 8.0 | 0.00 | 0.00 | 0.00 | 84 | 1014.7 |
| 20260505022646 | 21 | 155 | 4.8 | 4.8 | 0.00 | 0.00 | 0.00 | 84 | 1014.7 |
| 20260505022143 | 21 | 179 | 4.8 | 8.0 | 0.00 | 0.00 | 0.00 | 84 | 1014.4 |
| 20260505021640 | 21 | 160 | 6.4 | 8.0 | 0.00 | 0.00 | 0.00 | 83 | 1014.4 |
| 20260505021137 | 21 | 158 | 8.0 | 9.7 | 0.00 | 0.00 | 0.00 | 83 | 1014.6 |
| 20260505020632 | 21 | 147 | 3.2 | 4.8 | 0.00 | 0.00 | 0.00 | 83 | 1014.5 |
| 20260505020128 | 21 | 150 | 4.8 | 4.8 | 0.00 | 0.00 | 0.00 | 82 | 1014.5 |
| 20260505015625 | 21 | 168 | 4.8 | 4.8 | 0.00 | 0.00 | 0.00 | 82 | 1014.2 |
| 20260505015122 | 22 | 169 | 4.8 | 4.8 | 0.00 | 0.00 | 0.00 | 81 | 1014.4 |
| 20260505014618 | 22 | 133 | 1.6 | 3.2 | 0.00 | 0.00 | 0.00 | 81 | 1014.2 |
| 20260505014115 | 22 | 139 | 6.4 | 9.7 | 0.00 | 0.00 | 0.00 | 80 | 1014.2 |
| 20260505013608 | 22 | 182 | 4.8 | 4.8 | 0.00 | 0.00 | 0.00 | 80 | 1014.2 |
| 20260505013105 | 22 | 137 | 8.0 | 11.3 | 0.00 | 0.00 | 0.00 | 80 | 1014.2 |
| 20260505012603 | 22 | 92 | 8.0 | 11.3 | 0.00 | 0.00 | 0.00 | 80 | 1014.1 |
| 20260505012059 | 22 | 157 | 8.0 | 12.9 | 0.00 | 0.00 | 0.00 | 79 | 1014.0 |
| 20260505011555 | 22 | 144 | 1.6 | 3.2 | 0.00 | 0.00 | 0.00 | 79 | 1014.1 |
| 20260505011053 | 22 | 137 | 4.8 | 4.8 | 0.00 | 0.00 | 0.00 | 79 | 1014.2 |
| 20260505010548 | 22 | 240 | 6.4 | 9.7 | 0.00 | 0.00 | 0.00 | 79 | 1014.2 |
| 20260505010045 | 22 | 172 | 1.6 | 1.6 | 0.00 | 0.00 | 0.00 | 79 | 1013.9 |
| 20260505005541 | 22 | 158 | 1.6 | 1.6 | 0.00 | 0.00 | 0.00 | 78 | 1014.1 |
| 20260505005038 | 22 | 157 | 6.4 | 9.7 | 0.00 | 0.00 | 0.00 | 78 | 1014.2 |
| 20260505004535 | 22 | 130 | 4.8 | 4.8 | 0.00 | 0.00 | 0.00 | 77 | 1014.3 |
| 20260505004032 | 22 | 196 | 6.4 | 8.0 | 0.00 | 0.00 | 0.00 | 77 | 1014.2 |
| 20260505003529 | 22 | 179 | 3.2 | 3.2 | 0.00 | 0.00 | 0.00 | 77 | 1014.4 |
| 20260505003026 | 22 | 188 | 3.2 | 4.8 | 0.00 | 0.00 | 0.00 | 77 | 1014.2 |
| 20260505002521 | 23 | 185 | 3.2 | 8.0 | 0.00 | 0.00 | 0.00 | 76 | 1014.4 |
| 20260505002020 | 23 | 133 | 8.0 | 12.9 | 0.00 | 0.00 | 0.00 | 75 | 1014.2 |
| 20260505001517 | 23 | 164 | 1.6 | 3.2 | 0.00 | 0.00 | 0.00 | 75 | 1014.3 |
| 20260505001014 | 23 | 177 | 8.0 | 12.9 | 0.00 | 0.00 | 0.00 | 75 | 1014.4 |
| 20260505000512 | 23 | 193 | 4.8 | 4.8 | 0.00 | 0.00 | 0.00 | 74 | 1014.2 |
| 20260505000009 | 23 | 165 | 1.6 | 1.6 | 0.00 | 0.00 | 0.00 | 74 | 1014.4 |
| 20260504235506 | 23 | 189 | 4.8 | 8.0 | 0.00 | 0.00 | 0.00 | 74 | 1014.1 |
| 20260504235002 | 23 | 159 | 1.6 | 1.6 | 0.00 | 0.00 | 0.00 | 74 | 1014.2 |
| 20260504234459 | 24 | 170 | 3.2 | 3.2 | 0.00 | 0.00 | 0.00 | 73 | 1014.1 |
| 20260504233956 | 24 | 123 | 8.0 | 9.7 | 0.00 | 0.00 | 0.00 | 72 | 1014.1 |
| 20260504233451 | 24 | 153 | 6.4 | 8.0 | 0.00 | 0.00 | 0.00 | 72 | 1014.2 |
| 20260504232949 | 24 | 134 | 6.4 | 9.7 | 0.00 | 0.00 | 0.00 | 71 | 1014.6 |
| 20260504232446 | 24 | 149 | 8.0 | 11.3 | 0.00 | 0.00 | 0.00 | 71 | 1014.4 |
| 20260504231943 | 25 | 85 | 4.8 | 11.3 | 0.00 | 0.00 | 0.00 | 72 | 1014.5 |
| 20260504231439 | 25 | 178 | 6.4 | 9.7 | 0.00 | 0.00 | 0.00 | 70 | 1014.9 |
| 20260504230935 | 25 | 188 | 11.3 | 14.5 | 0.00 | 0.00 | 0.00 | 70 | 1014.8 |
| 20260504230432 | 25 | 161 | 4.8 | 4.8 | 0.00 | 0.00 | 0.00 | 70 | 1014.7 |
| 20260504225932 | 25 | 201 | 3.2 | 3.2 | 0.00 | 0.00 | 0.00 | 70 | 1014.8 |
| 20260504225428 | 25 | 192 | 4.8 | 8.0 | 0.00 | 0.00 | 0.00 | 70 | 1014.6 |
| 20260504224925 | 25 | 157 | 6.4 | 11.3 | 0.00 | 0.00 | 0.00 | 69 | 1014.4 |
| 20260504224422 | 26 | 184 | 9.7 | 12.9 | 0.00 | 0.00 | 0.00 | 68 | 1014.8 |
| 20260504223919 | 26 | 113 | 4.8 | 8.0 | 0.00 | 0.00 | 0.00 | 67 | 1014.8 |
| 20260504223414 | 26 | 178 | 6.4 | 8.0 | 0.00 | 0.00 | 0.00 | 67 | 1014.9 |
| 20260504222911 | 26 | 168 | 4.8 | 8.0 | 0.00 | 0.00 | 0.00 | 66 | 1014.8 |
| 20260504222408 | 27 | 174 | 4.8 | 8.0 | 0.00 | 0.00 | 0.00 | 63 | 1014.9 |
| 20260504221906 | 27 | 149 | 1.6 | 3.2 | 0.00 | 0.00 | 0.00 | 63 | 1014.8 |
| 20260504221402 | 27 | 150 | 4.8 | 8.0 | 0.00 | 0.00 | 0.00 | 62 | 1014.6 |
| 20260504220859 | 27 | 167 | 1.6 | 3.2 | 0.00 | 0.00 | 0.00 | 62 | 1014.9 |
| 20260504220351 | 26 | 193 | 1.6 | 3.2 | 0.00 | 0.00 | 0.00 | 64 | 1015.1 |
| 20260504215848 | 26 | 170 | 4.8 | 4.8 | 0.00 | 0.00 | 0.00 | 65 | 1015.2 |
| 20260504215344 | 26 | 115 | 4.8 | 11.3 | 0.00 | 0.00 | 0.00 | 62 | 1015.1 |
| 20260504214841 | 26 | 172 | 4.8 | 8.0 | 0.00 | 0.00 | 0.00 | 59 | 1015.2 |
| 20260504214338 | 27 | 198 | 8.0 | 9.7 | 0.00 | 0.00 | 0.00 | 60 | 1015.4 |
| 20260504213834 | 27 | 166 | 6.4 | 8.0 | 0.00 | 0.00 | 0.00 | 60 | 1015.2 |
| 20260504213330 | 27 | 167 | 8.0 | 11.3 | 0.00 | 0.00 | 0.00 | 59 | 1015.4 |
| 20260504212828 | 28 | 148 | 3.2 | 4.8 | 0.00 | 0.00 | 0.00 | 57 | 1015.3 |
| 20260504212323 | 27 | 169 | 1.6 | 3.2 | 0.00 | 0.00 | 0.00 | 61 | 1015.3 |
| 20260504211822 | 26 | 181 | 1.6 | 1.6 | 0.00 | 0.00 | 0.00 | 61 | 1015.7 |
| 20260504211317 | 26 | 128 | 9.7 | 11.3 | 0.00 | 0.00 | 0.00 | 59 | 1015.7 |
| 20260504210815 | 27 | 185 | 1.6 | 3.2 | 0.00 | 0.00 | 0.00 | 58 | 1015.9 |
| 20260504210312 | 27 | 168 | 6.4 | 8.0 | 0.00 | 0.00 | 0.00 | 57 | 1015.9 |
| 20260504205809 | 28 | 207 | 1.6 | 1.6 | 0.00 | 0.00 | 0.00 | 57 | 1016.0 |
| 20260504205307 | 27 | 169 | 1.6 | 1.6 | 0.00 | 0.00 | 0.00 | 58 | 1016.0 |
| 20260504204805 | 27 | 164 | 4.8 | 4.8 | 0.00 | 0.00 | 0.00 | 58 | 1016.2 |
| 20260504204303 | 27 | 187 | 3.2 | 3.2 | 0.00 | 0.00 | 0.00 | 58 | 1016.1 |
| 20260504203802 | 28 | 139 | 8.0 | 11.3 | 0.00 | 0.00 | 0.00 | 55 | 1016.3 |
| 20260504203258 | 28 | 151 | 3.2 | 3.2 | 0.00 | 0.00 | 0.00 | 57 | 1016.2 |
| 20260504202753 | 28 | 264 | 4.8 | 8.0 | 0.00 | 0.00 | 0.00 | 54 | 1016.2 |
| 20260504202251 | 28 | 231 | 1.6 | 3.2 | 0.00 | 0.00 | 0.00 | 55 | 1016.5 |
| 20260504201747 | 28 | 134 | 1.6 | 3.2 | 0.00 | 0.00 | 0.00 | 54 | 1016.8 |
| 20260504201244 | 28 | 181 | 1.6 | 1.6 | 0.00 | 0.00 | 0.00 | 54 | 1017.0 |
| 20260504200743 | 27 | 159 | 6.4 | 9.7 | 0.00 | 0.00 | 0.00 | 56 | 1016.9 |
| 20260504200238 | 28 | 182 | 8.0 | 12.9 | 0.00 | 0.00 | 0.00 | 53 | 1016.8 |
| 20260504195735 | 28 | 108 | 4.8 | 4.8 | 0.00 | 0.00 | 0.00 | 55 | 1016.9 |
| 20260504195231 | 27 | 181 | 3.2 | 3.2 | 0.00 | 0.00 | 0.00 | 57 | 1017.1 |
| 20260504194728 | 27 | 115 | 4.8 | 8.0 | 0.00 | 0.00 | 0.00 | 55 | 1017.1 |
| 20260504194224 | 27 | 132 | 0.0 | 0.0 | 0.00 | 0.00 | 0.00 | 54 | 1017.3 |
| 20260504193720 | 27 | 163 | 4.8 | 8.0 | 0.00 | 0.00 | 0.00 | 53 | 1017.3 |
| 20260504193218 | 27 | 84 | 9.7 | 14.5 | 0.00 | 0.00 | 0.00 | 53 | 1017.2 |
| 20260504192716 | 28 | 218 | 11.3 | 16.1 | 0.00 | 0.00 | 0.00 | 51 | 1017.3 |
| 20260504192214 | 27 | 187 | 6.4 | 9.7 | 0.00 | 0.00 | 0.00 | 55 | 1017.3 |
| 20260504191712 | 27 | 165 | 4.8 | 8.0 | 0.00 | 0.00 | 0.00 | 54 | 1017.5 |
| 20260504191209 | 27 | 168 | 3.2 | 4.8 | 0.00 | 0.00 | 0.00 | 55 | 1017.6 |
| 20260504190704 | 27 | 149 | 4.8 | 4.8 | 0.00 | 0.00 | 0.00 | 54 | 1017.5 |
| 20260504190201 | 26 | 166 | 4.8 | 4.8 | 0.00 | 0.00 | 0.00 | 57 | 1017.5 |
| 20260504185657 | 27 | 156 | 11.3 | 12.9 | 0.00 | 0.00 | 0.00 | 53 | 1017.7 |
| 20260504185154 | 27 | 296 | 4.8 | 4.8 | 0.00 | 0.00 | 0.00 | 55 | 1017.7 |
| 20260504184650 | 27 | 143 | 4.8 | 8.0 | 0.00 | 0.00 | 0.00 | 54 | 1017.9 |
| 20260504184145 | 27 | 200 | 1.6 | 1.6 | 0.00 | 0.00 | 0.00 | 54 | 1018.0 |
| 20260504183642 | 27 | 180 | 4.8 | 4.8 | 0.00 | 0.00 | 0.00 | 53 | 1018.0 |
| 20260504183140 | 27 | 294 | 6.4 | 8.0 | 0.00 | 0.00 | 0.00 | 55 | 1018.0 |
| 20260504182637 | 27 | 213 | 4.8 | 8.0 | 0.00 | 0.00 | 0.00 | 55 | 1018.1 |
| 20260504182134 | 26 | 152 | 12.9 | 14.5 | 0.00 | 0.00 | 0.00 | 53 | 1018.1 |
| 20260504181632 | 26 | 211 | 4.8 | 4.8 | 0.00 | 0.00 | 0.00 | 56 | 1018.4 |
| 20260504181129 | 26 | 211 | 8.0 | 11.3 | 0.00 | 0.00 | 0.00 | 52 | 1018.3 |
| 20260504180629 | 26 | 140 | 6.4 | 9.7 | 0.00 | 0.00 | 0.00 | 52 | 1018.2 |
| 20260504180127 | 26 | 113 | 9.7 | 11.3 | 0.00 | 0.00 | 0.00 | 55 | 1018.3 |
| 20260504175623 | 27 | 180 | 4.8 | 4.8 | 0.00 | 0.00 | 0.00 | 55 | 1018.2 |
| 20260504175120 | 27 | 143 | 4.8 | 8.0 | 0.00 | 0.00 | 0.00 | 53 | 1018.3 |
| 20260504174619 | 26 | 130 | 8.0 | 11.3 | 0.00 | 0.00 | 0.00 | 56 | 1018.5 |
| 20260504174114 | 26 | 177 | 9.7 | 14.5 | 0.00 | 0.00 | 0.00 | 56 | 1018.7 |
| 20260504173611 | 26 | 165 | 3.2 | 3.2 | 0.00 | 0.00 | 0.00 | 56 | 1018.9 |
| 20260504173109 | 27 | 152 | 4.8 | 4.8 | 0.00 | 0.00 | 0.00 | 56 | 1018.8 |
| 20260504172605 | 26 | 139 | 1.6 | 1.6 | 0.00 | 0.00 | 0.00 | 55 | 1018.8 |
| 20260504172102 | 26 | 209 | 3.2 | 4.8 | 0.00 | 0.00 | 0.00 | 56 | 1018.9 |